Tracking 31027 objects as of 19-Jul-2025
HD Live streaming from Space Station
objects crossing your sky now

FENGYUN 1C DEB

Track FENGYUN 1C DEB now!
10-day predictions


NORAD ID: 30820
Int'l Code: 1999-025AVE
Perigee: 796.2 km
Apogee: 869.7 km
Inclination: 98.7 °
Period: 101.4 minutes
Semi major axis: 7203 km
RCS: 0.0172 m2 (small)
Launch date: May 10, 1999
Source: People's Republic of China (PRC)
Launch site: Taiyaun Space Center, China (TSC)

Note: This is SATELLITE DEBRIS
Your satellite tracking list
SL-8 R/B
Track 1 satellite(s)




NASA's NSSDC Master Catalog

Two Line Element Set (TLE):
1 30820U 99025AVE 25199.21054031  .00002618  00000-0  12380-2 0  9993
2 30820  98.6759 298.2456 0051002 250.8688 175.0387 14.19870799943293
Source of the keplerian elements: AFSPC